Location: Kawakawa
(35.3830°S, 174.0670°E)
Time: 18:36:48
(UTC+12:00)

DELTA 2 R/B (1) - Pass Details

Date: 15 August 2020
Orbit: 791 x 802 km, 39.6° (Epoch: 25 September)

Event Time Altitude Azimuth Distance (km) Brightness Sun altitude
Rises 19:22:52 0° 268° (W) 3,293 8.4 -19.0°
Reaches altitude 10° 19:25:24 10° 264° (W) 2,366 7.2 -19.5°
Maximum altitude 19:30:54 57° 185° (S) 938 3.9 -20.6°
Enters shadow 19:32:48 38° 127° (SE) 1,206 4.1 -21.0°
